FW5890 Weather Reports


time (UTC)temp
F
wind
direction
speed
knots
gust
knots
rain 1hr
in
rain 24hr
in
rain mn
in
humidity
%
barometer
mb
20260504205019 61 323 3.5 8.7 0.00 0.00 0.00 41 1000.8
20260504204556 61 288 3.5 9.6 0.00 0.00 0.00 44 1000.7
20260504204005 61 296 3.5 12.2 0.00 0.00 0.00 43 1000.7
20260504203525 60 320 3.5 12.2 0.00 0.00 0.00 44 1000.7
20260504203046 60 348 1.7 12.2 0.00 0.00 0.00 44 1000.6
20260504202519 60 323 4.3 9.6 0.00 0.00 0.00 44 1000.6
20260504202006 61 53 2.6 12.2 0.00 0.00 0.00 44 1000.5
20260504201534 61 323 3.5 12.2 0.00 0.00 0.00 46 1000.6
20260504201055 61 188 3.5 8.7 0.00 0.00 0.00 44 1000.5
20260504200505 61 266 1.7 13.0 0.00 0.00 0.00 44 1000.4
20260504200136 61 317 4.3 11.3 0.00 0.00 0.00 41 1000.4
20260504195600 62 338 3.5 8.7 0.00 0.00 0.00 45 1000.3
20260504195019 61 309 1.7 13.0 0.00 0.00 0.00 48 1000.3
20260504194546 60 336 4.3 12.2 0.00 0.00 0.00 44 1000.2
20260504194004 60 321 3.5 12.2 0.00 0.00 0.00 45 1000.3
20260504193532 60 304 3.5 12.2 0.00 0.00 0.00 42 1000.3
20260504193053 61 340 2.6 8.7 0.00 0.00 0.00 42 1000.1
20260504192525 61 298 2.6 10.4 0.00 0.00 0.00 44 1000.1
20260504192047 60 311 4.3 13.0 0.00 0.00 0.00 44 1000.1
20260504191624 60 329 4.3 12.2 0.00 0.00 0.00 44 999.8
20260504191015 60 293 3.5 12.2 0.00 0.00 0.00 45 999.9
20260504190559 60 304 7.0 13.9 0.00 0.00 0.00 43 999.8
20260504190031 60 348 6.1 13.9 0.00 0.00 0.00 43 999.9
20260504185505 60 293 6.1 16.5 0.00 0.00 0.00 43 999.8
20260504185025 60 19 7.0 16.5 0.00 0.00 0.00 43 999.7
20260504184609 60 333 2.6 11.3 0.00 0.00 0.00 45 999.6
20260504184047 59 325 5.2 11.3 0.00 0.00 0.00 43 999.7
20260504183607 59 325 5.2 10.4 0.00 0.00 0.00 43 999.8
20260504183019 60 310 1.7 8.7 0.00 0.00 0.00 44 999.6
20260504182538 60 299 1.7 6.1 0.00 0.00 0.00 42 999.5
20260504182059 61 80 1.7 11.3 0.00 0.00 0.00 39 999.4
20260504181515 60 336 4.3 11.3 0.00 0.00 0.00 41 999.4
20260504181101 60 281 4.3 11.3 0.00 0.00 0.00 41 999.3
20260504180533 61 344 3.5 14.8 0.00 0.00 0.00 40 999.1
20260504180011 61 330 4.3 14.8 0.00 0.00 0.00 39 999.0
20260504175538 61 316 4.3 14.8 0.00 0.00 0.00 40 998.8
20260504175106 61 338 6.1 14.8 0.00 0.00 0.00 40 998.8
20260504174532 61 164 1.7 13.9 0.00 0.00 0.00 45 998.7
20260504174101 62 327 6.1 13.9 0.00 0.00 0.00 42 998.7
20260504173517 62 340 2.6 15.6 0.00 0.00 0.00 44 998.8
20260504173039 62 345 4.3 15.6 0.00 0.00 0.00 43 998.7
20260504172515 62 5 4.3 16.5 0.00 0.00 0.00 44 998.7
20260504172056 62 332 5.2 13.9 0.00 0.00 0.00 44 998.6
20260504171542 62 346 4.3 13.9 0.00 0.00 0.00 45 998.5
20260504171026 62 282 3.5 10.4 0.00 0.00 0.00 44 998.6
20260504170556 62 310 2.6 8.7 0.00 0.00 0.00 45 998.4
20260504151015 61 160 3.5 8.7 0.00 0.00 0.00 47 998.2
20260504150539 61 236 1.7 7.8 0.00 0.00 0.00 47 998.1
20260504141040 61 144 0.9 7.8 0.00 0.00 0.00 45 997.8
20260504140532 61 11 1.7 10.4 0.00 0.00 0.00 44 997.7
20260504140103 61 47 2.6 10.4 0.00 0.00 0.00 42 997.5
20260504130558 60 346 3.5 12.2 0.00 0.00 0.00 53 996.8
20260504110534 58 326 5.2 12.2 0.00 0.00 0.00 48 995.6
20260504100503 57 293 2.6 10.4 0.00 0.00 0.00 49 996.2
20260504081506 57 302 2.6 11.3 0.00 0.00 0.00 49 997.9
20260504081044 57 298 2.6 11.3 0.00 0.00 0.00 49 998.1
20260504080518 57 279 1.7 7.8 0.00 0.00 0.00 49 998.2
20260504070202 56 259 2.6 7.0 0.00 0.00 0.00 49 999.2
20260504050546 50 360 0.0 1.7 0.00 0.00 0.00 68 1001.4
20260504050024 50 360 0.0 1.7 0.00 0.00 0.00 69 1001.5
20260504045603 49 360 0.0 0.0 0.00 0.00 0.00 70 1001.5
20260504045022 49 360 0.0 0.0 0.00 0.00 0.00 70 1001.6
20260504044504 49 360 0.0 0.0 0.00 0.00 0.00 72 1001.7
20260504044028 49 360 0.0 0.9 0.00 0.00 0.00 74 1001.8
20260504043508 49 360 0.0 0.9 0.00 0.00 0.00 74 1001.9
20260504043039 48 360 0.0 0.0 0.00 0.00 0.00 75 1002.0
20260504042532 49 360 0.0 0.0 0.00 0.00 0.00 76 1002.1
20260504042018 49 360 0.0 0.0 0.00 0.00 0.00 75 1002.1
20260504041505 49 360 0.0 0.0 0.00 0.00 0.00 75 1002.2
20260504041004 49 360 0.0 0.0 0.00 0.00 0.00 75 1002.3
20260504040602 49 360 0.0 0.0 0.00 0.00 0.00 74 1002.3
20260504040037 49 360 0.0 0.0 0.00 0.00 0.00 75 1002.4
20260504035512 49 360 0.0 0.0 0.00 0.00 0.00 74 1002.6
20260504035058 49 360 0.0 0.0 0.00 0.00 0.00 73 1002.7
20260504034554 50 360 0.0 0.0 0.00 0.00 0.00 73 1002.8
20260504034037 50 360 0.0 0.0 0.00 0.00 0.00 71 1002.9
20260504033502 50 360 0.0 0.0 0.00 0.00 0.00 70 1002.9
20260504033028 50 360 0.0 0.0 0.00 0.00 0.00 69 1003.0
20260504032517 51 360 0.0 0.0 0.00 0.00 0.00 71 1003.1
20260504032008 51 360 0.0 0.0 0.00 0.00 0.00 75 1003.1
20260504031559 51 360 0.0 0.0 0.00 0.00 0.00 67 1003.1
20260504031023 52 360 0.0 0.0 0.00 0.00 0.00 71 1003.2
20260504030509 52 360 0.0 0.0 0.00 0.00 0.00 74 1003.2
20260504030029 53 360 0.0 0.0 0.00 0.00 0.00 73 1003.3
20260504025549 53 360 0.0 0.0 0.00 0.00 0.00 67 1003.3
20260504025109 53 360 0.0 0.0 0.00 0.00 0.00 66 1003.4
20260504024532 54 360 0.0 0.0 0.00 0.00 0.00 64 1003.4
20260504024104 54 360 0.0 0.0 0.00 0.00 0.00 61 1003.4
20260504023537 55 360 0.0 0.0 0.00 0.00 0.00 56 1003.4
20260504023011 56 360 0.0 0.0 0.00 0.00 0.00 58 1003.4
20260504022535 57 315 0.0 0.0 0.00 0.00 0.00 65 1003.5
20260504022002 58 315 0.0 0.0 0.00 0.00 0.00 68 1003.5
20260504021525 58 315 0.0 0.0 0.00 0.00 0.00 69 1003.4
20260504021106 59 315 0.0 0.0 0.00 0.00 0.00 62 1003.5
20260504020540 60 315 0.0 0.0 0.00 0.00 0.00 58 1003.5
20260504020007 61 315 0.0 0.0 0.00 0.00 0.00 57 1003.4
20260504015535 61 315 0.0 0.0 0.00 0.00 0.00 53 1003.4
20260504015008 62 315 0.0 0.9 0.00 0.00 0.00 45 1003.5
20260504014549 62 315 0.0 1.7 0.00 0.00 0.00 41 1003.5
20260504014026 63 315 0.0 1.7 0.00 0.00 0.00 36 1003.7
20260504013557 64 315 0.0 0.0 0.00 0.00 0.00 39 1003.6
20260504013041 64 315 0.0 1.7 0.00 0.00 0.00 34 1003.7
20260504012604 65 315 0.0 1.7 0.00 0.00 0.00 33 1003.7
20260504012015 65 315 0.0 0.0 0.00 0.00 0.00 33 1003.8
20260504011556 65 315 0.0 3.5 0.00 0.00 0.00 32 1003.8
20260504011027 66 315 0.9 3.5 0.00 0.00 0.00 32 1003.8
20260504010519 66 336 0.0 2.6 0.00 0.00 0.00 32 1003.7
20260504010106 66 311 0.0 2.6 0.00 0.00 0.00 32 1003.7
20260504005517 66 310 0.0 3.5 0.00 0.00 0.00 32 1003.8
20260504005059 66 300 0.9 3.5 0.00 0.00 0.00 32 1003.9
20260504004522 67 341 0.9 4.3 0.00 0.00 0.00 31 1003.9
20260504004002 67 317 1.7 7.8 0.00 0.00 0.00 31 1003.9
20260504003522 67 327 3.5 7.8 0.00 0.00 0.00 30 1003.8
20260504003045 67 331 1.7 7.0 0.00 0.00 0.00 32 1003.9
20260504002531 67 331 0.9 5.2 0.00 0.00 0.00 33 1003.9
20260504002058 67 11 1.7 5.2 0.00 0.00 0.00 32 1003.9
20260504001513 67 328 2.6 7.0 0.00 0.00 0.00 31 1003.9
20260504001051 67 344 2.6 7.0 0.00 0.00 0.00 32 1004.0
20260504000520 67 335 0.9 3.5 0.00 0.00 0.00 32 1004.1
20260504000101 68 308 0.9 3.5 0.00 0.00 0.00 32 1004.0
20260503235600 68 326 0.9 4.3 0.00 0.00 0.00 31 1004.0
20260503235037 68 327 1.7 4.3 0.00 0.00 0.00 30 1003.9
20260503234509 69 266 0.9 4.3 0.00 0.00 0.00 31 1003.9
20260503234029 69 316 1.7 7.0 0.00 0.00 0.00 30 1003.9
20260503233549 69 323 0.9 7.0 0.00 0.00 0.00 30 1004.0
20260503233108 70 321 0.0 5.2 0.00 0.00 0.00 30 1004.0
20260503232523 70 328 0.9 5.2 0.00 0.00 0.00 30 1004.2
20260503232039 70 14 2.6 5.2 0.00 0.00 0.00 30 1004.3
20260503231559 70 328 1.7 7.8 0.00 0.00 0.00 29 1004.4
20260503231009 70 64 0.9 7.8 0.00 0.00 0.00 30 1004.3
20260503230553 70 319 2.6 8.7 0.00 0.00 0.00 30 1004.4
20260503230014 70 316 4.3 8.7 0.00 0.00 0.00 29 1004.4
20260503225544 70 312 0.9 7.8 0.00 0.00 0.00 28 1004.4
20260503225018 70 282 2.6 7.8 0.00 0.00 0.00 28 1004.5
20260503224537 70 320 2.6 9.6 0.00 0.00 0.00 29 1004.5
20260503224057 70 344 3.5 9.6 0.00 0.00 0.00 28 1004.5
20260503223517 70 312 1.7 7.8 0.00 0.00 0.00 29 1004.6
20260503223005 70 305 2.6 7.8 0.00 0.00 0.00 29 1004.6
20260503222526 70 310 2.6 5.2 0.00 0.00 0.00 30 1004.6
20260503222047 71 327 2.6 7.0 0.00 0.00 0.00 28 1004.6
20260503221529 71 333 1.7 7.8 0.00 0.00 0.00 29 1004.5
20260503221103 71 325 2.6 7.8 0.00 0.00 0.00 30 1004.6
20260503220509 71 325 1.7 6.1 0.00 0.00 0.00 31 1004.6
20260503220029 71 112 0.9 7.0 0.00 0.00 0.00 32 1004.6
20260503215509 71 19 1.7 8.7 0.00 0.00 0.00 30 1004.6
20260503215046 72 300 2.6 8.7 0.00 0.00 0.00 30 1004.6
20260503214606 72 290 0.0 5.2 0.00 0.00 0.00 33 1004.6
20260503214017 72 336 1.7 3.5 0.00 0.00 0.00 31 1004.7
20260503213537 71 318 0.9 4.3 0.00 0.00 0.00 31 1004.7
20260503213011 71 146 0.9 7.0 0.00 0.00 0.00 31 1004.8
20260503212534 71 326 0.9 7.0 0.00 0.00 0.00 31 1004.8
20260503212050 71 312 2.6 9.6 0.00 0.00 0.00 31 1004.8
20260503211525 71 244 1.7 9.6 0.00 0.00 0.00 34 1004.9
20260503211059 72 311 2.6 7.0 0.00 0.00 0.00 31 1004.9
20260503210542 71 348 0.9 4.3 0.00 0.00 0.00 33 1004.8
20260503210013 70 243 0.9 7.8 0.00 0.00 0.00 35 1005.0
20260503205509 70 323 2.6 7.8 0.00 0.00 0.00 32 1005.0